Location: Beaver Brook Station
(42.3793°N, 71.2203°W)
Time: 02:09:58
(UTC+00:00)

Meteor 2-15 - Pass Details

Date: 29 October 2020
Orbit: 935 x 956 km, 82.5° (Epoch: 05 December)

Event Time Altitude Azimuth Distance (km) Brightness Sun altitude
Rises 22:55:42 0° 181° (S) 3,619 7.6 -14.2°
Reaches altitude 10° 22:58:11 10° 180° (S) 2,677 6.9 -14.7°
Maximum altitude 23:04:18 76° 95° (E) 986 4.4 -15.8°
Drops below altitude 10° 23:10:26 10° 11° (NNE) 2,685 6.7 -17.0°
Sets 23:12:56 0° 10° (N) 3,632 7.4 -17.4°
